Simultaneous Nadir Overpasses (SNOs) Predictions

Prediction of SNOs between AURA and NPP Satellite Orbit:

Table of predicted SNOs for the next 14.0 days since TLE Epoch: 7/20/2019
Index Date (AURA) Time (AURA) Lat,Lon (AURA) SZA (AURA ) Date (NPP) Time (NPP) Lat,Lon (NPP) SZA (NPP ) Distance(km) Time Diff (sec)
1 07/20/2019 10:35:35 79.07, -84.90 73.00 07/20/2019 10:34:24 79.06, -85.04 73.08 3.06 71
2 07/20/2019 11:24:54 -79.39, 84.79 107.47 07/20/2019 11:25:00 -79.39, 84.69 107.46 2.10 6
3 07/23/2019 02:51:59 79.24, 32.01 73.28 07/23/2019 02:51:14 79.23, 31.95 73.32 1.42 45
4 07/23/2019 03:41:19 -79.52,-158.49 107.14 07/23/2019 03:41:51 -79.51,-158.50 107.16 0.38 32
5 07/25/2019 19:08:26 79.32, 148.43 73.71 07/25/2019 19:08:07 79.32, 148.43 73.72 0.23 19
6 07/25/2019 19:57:46 -79.60, -42.03 106.71 07/25/2019 19:58:44 -79.60, -41.97 106.76 1.28 58
7 07/28/2019 10:35:36 -79.06, 95.05 105.35 07/28/2019 10:34:26 -79.06, 94.93 105.27 2.82 70
8 07/28/2019 11:24:52 79.44, -94.88 74.12 07/28/2019 11:24:59 79.45, -94.82 74.10 1.25 7
9 07/31/2019 02:52:02 -79.19,-148.29 104.91 07/31/2019 02:51:18 -79.19,-148.37 104.86 1.74 44
10 07/31/2019 03:41:19 79.53, 21.57 74.62 07/31/2019 03:41:52 79.53, 21.67 74.57 2.25 33
11 08/02/2019 19:08:27 -79.32, -31.61 104.43 08/02/2019 19:08:09 -79.31, -31.65 104.41 0.86 18




NCC Satellite Simultaneous Nadir Overpasses (SNOs) Prediction Service
